World > North America > United States > California > Joshua Tree  

Joshua Tree, CA Hourly Weather Updates

Feedback E-mail the Weather

Quick Clicks

Joshua Tree, CA Weather Maps

°F °C°F °C
Joshua Tree Weather Map
UTC Time: 4/24/2024, 19:38
Your Time:

Joshua Tree, CA Regional Weather

Expires:202404242000;;306449
ASUS45 KPSR 241910
RWRAZ 

ARIZONA HOURLY REGIONAL WEATHER ROUNDUP
NATIONAL WEATHER SERVICE PHOENIX AZ
1200 PM MST WED APR 24 2024

NOTE: FAIR INDICATES FEW OR NO CLOUDS BELOW 12,000 FEET WITH NO
SIGNIFICANT WEATHER AND/OR OBSTRUCTIONS TO VISIBILITY.


CAZ041-043-047-048-061-525>527-560>570-242000-
SOUTHERN CALIFORNIA
  
CITY           SKY/WX    TMP DP  RH WIND       PRES   REMARKS
DOWNTOWN L.A.  MOSUNNY   66  50  56 W3        30.07F TC  19           
L.A. AIRPORT   MOSUNNY   63  50  62 SW10G24   30.08F TC  17           
SAN DIEGO      PTSUNNY   66  49  54 W13G24    30.10S TC  19           
BURBANK        MOSUNNY   64  49  57 S8        30.05F TC  18           
ONTARIO        PTSUNNY   64  41  42 W9        30.06S TC  18           
RIVERSIDE      MOSUNNY   67  47  48 VRB3      30.06F TC  19           
PALM SPRINGS   SUNNY     81  42  25 NW13G28   29.92F TC  27           
EL CENTRO NAS  SUNNY     86  34  15 S8        29.90F TC  30           
IMPERIAL       SUNNY     81  45  28 CALM      29.89F TC  27           
BLYTHE         SUNNY     87  26  11 S13G23    29.88F TC  31           
NEEDLES        SUNNY     87  32  14 S21G31    29.87F TC  31           
$$


SKY/WX - Weather  TMP - Temperature  DP - Dew Point  RH - Humidity
WIND - Wind Direction/Speed PRES - Barometric Pressure VSB - Visibility
WCI - Wind Chill Index E13G22 Wind - East Wind 13 mph/Gusts of 22 mph

Trending Headlines

Trending Entertainment Headlines

Joshua Tree Radar Loop

Use the map search tool if you want to place a location marker on the radar map...

Joshua Tree Quick Facts

National Two Day Weather Forecast


E-mail the Joshua Tree Weather Forecast

Voice your opinion or tell us about page issues...